BTK7311 WIHH-WADD

Flight info

Callsign BTK7311
Flight time 1h 21m
Altitude 39000
Route CA1Z CA T3 MOVMO MOVM1E
Aircraft B738/M-VGDW/C

Departure

Time 2026-05-04 14:53
Airport Halim Perdanakusuma International Airport (WIHH)

Arrival

Time 2026-05-04 16:14
Airport Denpasar I Gusti Ngurah Rai International Airport (WADD)
Time Latitude Longitude Altitude Speed Heading
2026-05-04 14:31 -6.26616 106.88605 94 ft 0 kts 336°
2026-05-04 14:44 -6.26620 106.88607 94 ft 4 kts 335°
2026-05-04 14:44 -6.26647 106.88618 94 ft 4 kts 338°
2026-05-04 14:44 -6.26672 106.88628 94 ft 3 kts 340°
2026-05-04 14:45 -6.26679 106.88630 93 ft 0 kts 340°
2026-05-04 14:47 -6.26677 106.88630 93 ft 2 kts 343°
2026-05-04 14:47 -6.26654 106.88651 93 ft 7 kts 63°
2026-05-04 14:48 -6.26630 106.88702 94 ft 7 kts 64°
2026-05-04 14:48 -6.26610 106.88745 96 ft 7 kts 65°
2026-05-04 14:48 -6.26586 106.88797 94 ft 9 kts 65°
2026-05-04 14:48 -6.26557 106.88861 96 ft 11 kts 65°
2026-05-04 14:49 -6.26521 106.88937 94 ft 13 kts 65°
2026-05-04 14:49 -6.26499 106.88994 96 ft 14 kts 79°
2026-05-04 14:49 -6.26534 106.89122 96 ft 15 kts 111°
2026-05-04 14:49 -6.26570 106.89217 97 ft 14 kts 111°
2026-05-04 14:50 -6.26579 106.89281 95 ft 15 kts 77°
2026-05-04 14:50 -6.26537 106.89381 94 ft 16 kts 65°
2026-05-04 14:50 -6.26490 106.89483 94 ft 16 kts 65°
2026-05-04 14:50 -6.26444 106.89582 96 ft 16 kts 65°
2026-05-04 14:51 -6.26395 106.89690 94 ft 18 kts 65°
2026-05-04 14:51 -6.26339 106.89811 95 ft 20 kts 65°
2026-05-04 14:51 -6.26280 106.89938 96 ft 20 kts 65°
2026-05-04 14:51 -6.26218 106.90072 96 ft 22 kts 65°
2026-05-04 14:52 -6.26139 106.90196 96 ft 11 kts 36°
2026-05-04 14:52 -6.26162 106.90221 97 ft 11 kts 245°
2026-05-04 14:52 -6.26182 106.90151 97 ft 6 kts 245°
2026-05-04 14:52 -6.26183 106.90147 96 ft 2 kts 245°
2026-05-04 14:53 -6.26247 106.90009 96 ft 55 kts 245°
2026-05-04 14:53 -6.26512 106.89435 94 ft 123 kts 245°
2026-05-04 14:53 -6.26951 106.88498 223 ft 162 kts 244°
2026-05-04 14:53 -6.27428 106.87477 880 ft 165 kts 244°
2026-05-04 14:54 -6.27930 106.86420 1507 ft 171 kts 244°
2026-05-04 14:54 -6.28455 106.85300 2061 ft 186 kts 244°
2026-05-04 14:54 -6.29032 106.84029 2425 ft 213 kts 245°
2026-05-04 14:54 -6.29672 106.82655 2986 ft 221 kts 236°
2026-05-04 14:55 -6.30874 106.81580 3098 ft 248 kts 204°
2026-05-04 14:55 -6.32516 106.80834 3438 ft 269 kts 204°
2026-05-04 14:55 -6.34219 106.80032 4254 ft 272 kts 197°
2026-05-04 14:55 -6.36098 106.79909 4948 ft 275 kts 164°
2026-05-04 14:56 -6.37799 106.80756 5750 ft 275 kts 138°
2026-05-04 14:56 -6.39020 106.82210 6619 ft 272 kts 121°
2026-05-04 14:56 -6.40003 106.83851 7342 ft 276 kts 120°
2026-05-04 14:56 -6.40983 106.85533 8065 ft 281 kts 119°
2026-05-04 14:57 -6.41699 106.87360 8779 ft 284 kts 101°
2026-05-04 14:57 -6.42038 106.89324 9522 ft 287 kts 98°
2026-05-04 14:57 -6.42338 106.91318 10203 ft 291 kts 98°
2026-05-04 14:57 -6.42642 106.93346 10789 ft 299 kts 98°
2026-05-04 14:58 -6.42971 106.95494 10944 ft 322 kts 98°
2026-05-04 14:58 -6.43333 106.97791 11127 ft 342 kts 99°
2026-05-04 14:58 -6.43715 107.00155 11556 ft 351 kts 99°
2026-05-04 14:58 -6.44114 107.02589 12173 ft 354 kts 99°
2026-05-04 14:59 -6.44521 107.05038 12822 ft 357 kts 99°
2026-05-04 14:59 -6.44935 107.07510 13453 ft 360 kts 99°
2026-05-04 14:59 -6.45781 107.12537 14610 ft 368 kts 99°
2026-05-04 15:00 -6.46210 107.15082 15203 ft 370 kts 99°
2026-05-04 15:00 -6.46642 107.17643 15795 ft 373 kts 99°
2026-05-04 15:00 -6.47080 107.20235 16372 ft 377 kts 99°
2026-05-04 15:01 -6.47960 107.25454 17490 ft 384 kts 99°
2026-05-04 15:01 -6.48409 107.28117 18036 ft 388 kts 99°
2026-05-04 15:01 -6.48862 107.30800 18523 ft 391 kts 99°
2026-05-04 15:01 -6.49317 107.33503 19025 ft 393 kts 99°
2026-05-04 15:02 -6.49776 107.36225 19525 ft 394 kts 99°
2026-05-04 15:02 -6.50235 107.38950 20020 ft 396 kts 99°
2026-05-04 15:02 -6.50697 107.41696 20497 ft 399 kts 99°
2026-05-04 15:02 -6.51161 107.44454 20955 ft 401 kts 99°
2026-05-04 15:03 -6.51623 107.47200 21403 ft 404 kts 99°
2026-05-04 15:03 -6.52092 107.49990 21848 ft 406 kts 99°
2026-05-04 15:03 -6.52565 107.52799 22295 ft 408 kts 99°
2026-05-04 15:03 -6.53045 107.55659 22724 ft 412 kts 99°
2026-05-04 15:04 -6.53519 107.58476 23059 ft 416 kts 99°
2026-05-04 15:04 -6.54002 107.61357 23469 ft 418 kts 99°
2026-05-04 15:04 -6.54488 107.64249 23829 ft 420 kts 99°
2026-05-04 15:04 -6.54975 107.67153 23907 ft 420 kts 99°
2026-05-04 15:05 -6.55460 107.70041 23950 ft 421 kts 99°
2026-05-04 15:05 -6.55952 107.72972 24138 ft 426 kts 99°
2026-05-04 15:05 -6.56444 107.75907 24512 ft 426 kts 99°
2026-05-04 15:05 -6.56936 107.78848 24889 ft 427 kts 99°
2026-05-04 15:06 -6.57431 107.81799 25210 ft 429 kts 99°
2026-05-04 15:06 -6.57929 107.84775 25514 ft 432 kts 99°
2026-05-04 15:06 -6.58428 107.87757 25821 ft 434 kts 99°
2026-05-04 15:07 -6.59434 107.93769 26435 ft 438 kts 98°
2026-05-04 15:07 -6.59941 107.96800 26732 ft 440 kts 98°
2026-05-04 15:07 -6.60450 107.99845 27016 ft 442 kts 98°
2026-05-04 15:07 -6.60960 108.02902 27305 ft 444 kts 98°
2026-05-04 15:08 -6.61466 108.05931 27583 ft 446 kts 98°
2026-05-04 15:08 -6.61981 108.09014 27863 ft 448 kts 98°
2026-05-04 15:08 -6.62498 108.12115 28131 ft 450 kts 98°
2026-05-04 15:08 -6.63016 108.15221 28400 ft 452 kts 98°
2026-05-04 15:09 -6.63538 108.18347 28655 ft 453 kts 98°
2026-05-04 15:09 -6.64060 108.21479 28910 ft 455 kts 98°
2026-05-04 15:09 -6.64585 108.24628 29176 ft 457 kts 98°
2026-05-04 15:10 -6.65639 108.30961 29661 ft 461 kts 98°
2026-05-04 15:10 -6.66169 108.34142 29893 ft 462 kts 98°
2026-05-04 15:10 -6.67235 108.40551 30286 ft 466 kts 98°
2026-05-04 15:11 -6.67769 108.43769 30465 ft 467 kts 98°
2026-05-04 15:11 -6.68306 108.46998 30618 ft 470 kts 98°
2026-05-04 15:11 -6.68846 108.50252 30789 ft 471 kts 98°
2026-05-04 15:11 -6.69387 108.53509 31040 ft 471 kts 98°
2026-05-04 15:12 -6.69924 108.56752 31330 ft 470 kts 98°
2026-05-04 15:12 -6.70441 108.59993 31605 ft 469 kts 98°
2026-05-04 15:12 -6.70934 108.63194 31841 ft 469 kts 97°
2026-05-04 15:12 -6.71427 108.66438 32083 ft 469 kts 97°
2026-05-04 15:13 -6.71921 108.69689 32359 ft 469 kts 98°
2026-05-04 15:13 -6.72414 108.72932 32625 ft 469 kts 98°
2026-05-04 15:13 -6.72909 108.76174 32884 ft 469 kts 98°
2026-05-04 15:13 -6.73406 108.79416 33159 ft 468 kts 98°
2026-05-04 15:14 -6.73901 108.82646 33515 ft 466 kts 98°
2026-05-04 15:14 -6.74395 108.85864 33822 ft 465 kts 98°
2026-05-04 15:14 -6.74889 108.89082 34034 ft 466 kts 98°
2026-05-04 15:14 -6.75384 108.92310 34238 ft 467 kts 98°
2026-05-04 15:15 -6.75880 108.95539 34483 ft 466 kts 98°
2026-05-04 15:15 -6.76374 108.98766 34753 ft 465 kts 98°
2026-05-04 15:15 -6.76861 109.01939 34992 ft 465 kts 98°
2026-05-04 15:16 -6.77848 109.08388 35427 ft 466 kts 98°
2026-05-04 15:16 -6.78341 109.11613 35670 ft 466 kts 98°
2026-05-04 15:16 -6.79322 109.18028 36286 ft 461 kts 98°
2026-05-04 15:17 -6.79810 109.21222 36483 ft 462 kts 98°
2026-05-04 15:17 -6.80785 109.27605 36821 ft 464 kts 98°
2026-05-04 15:17 -6.81275 109.30816 37068 ft 464 kts 98°
2026-05-04 15:18 -6.81765 109.34029 37292 ft 464 kts 98°
2026-05-04 15:18 -6.82254 109.37239 37467 ft 465 kts 98°
2026-05-04 15:18 -6.82744 109.40455 37661 ft 465 kts 98°
2026-05-04 15:19 -6.83722 109.46876 38110 ft 464 kts 98°
2026-05-04 15:19 -6.84209 109.50076 38384 ft 462 kts 98°
2026-05-04 15:19 -6.85180 109.56461 38727 ft 462 kts 98°
2026-05-04 15:20 -6.85665 109.59655 38868 ft 462 kts 98°
2026-05-04 15:20 -6.86151 109.62857 38908 ft 464 kts 98°
2026-05-04 15:20 -6.87121 109.69243 38907 ft 463 kts 98°
2026-05-04 15:21 -6.88089 109.75624 38930 ft 459 kts 98°
2026-05-04 15:22 -6.89526 109.85113 38944 ft 456 kts 98°
2026-05-04 15:22 -6.90954 109.94554 38933 ft 454 kts 98°
2026-05-04 15:23 -6.91903 110.00838 38930 ft 454 kts 98°
2026-05-04 15:23 -6.92851 110.07115 38923 ft 454 kts 98°
2026-05-04 15:24 -6.94747 110.19694 38922 ft 457 kts 98°
2026-05-04 15:25 -6.95701 110.26032 38915 ft 459 kts 98°
2026-05-04 15:26 -6.97139 110.35594 38908 ft 461 kts 98°
2026-05-04 15:26 -6.97781 110.45243 38917 ft 461 kts 90°
2026-05-04 15:27 -6.97834 110.54930 38909 ft 461 kts 90°
2026-05-04 15:28 -6.97976 110.64574 38903 ft 460 kts 90°
2026-05-04 15:29 -6.98151 110.74204 38906 ft 458 kts 90°
2026-05-04 15:30 -6.98541 110.96485 38913 ft 453 kts 90°
2026-05-04 15:31 -6.98704 111.06012 38906 ft 451 kts 90°
2026-05-04 15:32 -6.98968 111.21710 38912 ft 449 kts 90°
2026-05-04 15:34 -6.99228 111.37447 38914 ft 450 kts 90°
2026-05-04 15:34 -7.01143 111.46651 38924 ft 452 kts 112°
2026-05-04 15:35 -7.04874 111.55349 38919 ft 454 kts 112°
2026-05-04 15:36 -7.08608 111.64138 38915 ft 455 kts 112°
2026-05-04 15:36 -7.11072 111.70022 38920 ft 457 kts 112°
2026-05-04 15:37 -7.13536 111.75925 38914 ft 458 kts 112°
2026-05-04 15:37 -7.15992 111.81808 38909 ft 459 kts 111°
2026-05-04 15:38 -7.18468 111.87740 38911 ft 460 kts 111°
2026-05-04 15:38 -7.20545 111.92717 38914 ft 460 kts 111°
2026-05-04 15:39 -7.23010 111.98627 38911 ft 460 kts 111°
2026-05-04 15:40 -7.26727 112.07540 38912 ft 460 kts 111°
2026-05-04 15:40 -7.29204 112.13485 38902 ft 459 kts 111°
2026-05-04 15:41 -7.31675 112.19417 38915 ft 459 kts 111°
2026-05-04 15:41 -7.34143 112.25346 38901 ft 459 kts 111°
2026-05-04 15:42 -7.36611 112.31274 38898 ft 459 kts 111°
2026-05-04 15:42 -7.39077 112.37201 38891 ft 459 kts 111°
2026-05-04 15:43 -7.41544 112.43135 38911 ft 459 kts 111°
2026-05-04 15:43 -7.44001 112.49046 38908 ft 461 kts 111°
2026-05-04 15:44 -7.46480 112.55013 38922 ft 463 kts 111°
2026-05-04 15:44 -7.48971 112.61012 38917 ft 465 kts 111°
2026-05-04 15:45 -7.51469 112.67030 38913 ft 467 kts 111°
2026-05-04 15:45 -7.53975 112.73070 38908 ft 468 kts 111°
2026-05-04 15:46 -7.56489 112.79131 38916 ft 469 kts 111°
2026-05-04 15:46 -7.59005 112.85201 38922 ft 470 kts 111°
2026-05-04 15:47 -7.61524 112.91278 38907 ft 470 kts 111°
2026-05-04 15:47 -7.64040 112.97354 38923 ft 469 kts 111°
2026-05-04 15:48 -7.66570 113.03466 38263 ft 476 kts 111°
2026-05-04 15:48 -7.67840 113.06536 37690 ft 473 kts 111°
2026-05-04 15:48 -7.70367 113.12644 36497 ft 471 kts 112°
2026-05-04 15:49 -7.71608 113.15644 35908 ft 470 kts 112°
2026-05-04 15:49 -7.72868 113.18691 35253 ft 470 kts 112°
2026-05-04 15:49 -7.74131 113.21746 34577 ft 472 kts 112°
2026-05-04 15:49 -7.75389 113.24791 34096 ft 468 kts 112°
2026-05-04 15:50 -7.76639 113.27815 33524 ft 466 kts 112°
2026-05-04 15:50 -7.77878 113.30815 33030 ft 461 kts 112°
2026-05-04 15:50 -7.79106 113.33787 32542 ft 457 kts 112°
2026-05-04 15:50 -7.80324 113.36737 32076 ft 452 kts 112°
2026-05-04 15:51 -7.81526 113.39650 31627 ft 448 kts 112°
2026-05-04 15:51 -7.82718 113.42539 31169 ft 444 kts 112°
2026-05-04 15:51 -7.83901 113.45405 30723 ft 440 kts 112°
2026-05-04 15:51 -7.85073 113.48246 30269 ft 437 kts 112°
2026-05-04 15:52 -7.86234 113.51063 29778 ft 434 kts 112°
2026-05-04 15:52 -7.87391 113.53868 29273 ft 430 kts 112°
2026-05-04 15:52 -7.88533 113.56639 28786 ft 426 kts 112°
2026-05-04 15:52 -7.89651 113.59350 28321 ft 422 kts 112°
2026-05-04 15:53 -7.90772 113.62070 27861 ft 418 kts 112°
2026-05-04 15:53 -7.91882 113.64766 27414 ft 414 kts 112°
2026-05-04 15:53 -7.92983 113.67439 26974 ft 411 kts 112°
2026-05-04 15:53 -7.94073 113.70086 26529 ft 408 kts 112°
2026-05-04 15:54 -7.95160 113.72725 26091 ft 405 kts 112°
2026-05-04 15:54 -7.96236 113.75340 25653 ft 402 kts 112°
2026-05-04 15:54 -7.97306 113.77941 25191 ft 400 kts 112°
2026-05-04 15:54 -7.98371 113.80531 24758 ft 398 kts 112°
2026-05-04 15:55 -7.99432 113.83109 24299 ft 397 kts 112°
2026-05-04 15:55 -8.00487 113.85675 23858 ft 395 kts 112°
2026-05-04 15:55 -8.01544 113.88237 23389 ft 394 kts 113°
2026-05-04 15:55 -8.02804 113.90679 22890 ft 391 kts 124°
2026-05-04 15:56 -8.04391 113.92887 22475 ft 387 kts 126°
2026-05-04 15:56 -8.05989 113.95056 22052 ft 384 kts 127°
2026-05-04 15:56 -8.07578 113.97210 21614 ft 381 kts 126°
2026-05-04 15:56 -8.09145 113.99345 21190 ft 377 kts 126°
2026-05-04 15:57 -8.10698 114.01468 20770 ft 375 kts 126°
2026-05-04 15:57 -8.12237 114.03581 20347 ft 372 kts 126°
2026-05-04 15:57 -8.13759 114.05675 19921 ft 369 kts 126°
2026-05-04 15:57 -8.15275 114.07764 19502 ft 368 kts 126°
2026-05-04 15:58 -8.16781 114.09841 19100 ft 365 kts 126°
2026-05-04 15:58 -8.18279 114.11909 18660 ft 364 kts 126°
2026-05-04 15:58 -8.19771 114.13969 18231 ft 363 kts 126°
2026-05-04 15:58 -8.21257 114.16020 17774 ft 360 kts 126°
2026-05-04 15:59 -8.22712 114.18030 17335 ft 358 kts 126°
2026-05-04 15:59 -8.24174 114.20049 16915 ft 355 kts 126°
2026-05-04 15:59 -8.25624 114.22051 16505 ft 351 kts 126°
2026-05-04 15:59 -8.27059 114.24034 16099 ft 348 kts 126°
2026-05-04 16:00 -8.28483 114.26002 15687 ft 345 kts 126°
2026-05-04 16:00 -8.29896 114.27954 15290 ft 343 kts 126°
2026-05-04 16:00 -8.31296 114.29890 14892 ft 340 kts 126°
2026-05-04 16:00 -8.32690 114.31817 14498 ft 338 kts 126°
2026-05-04 16:01 -8.34077 114.33734 14091 ft 337 kts 126°
2026-05-04 16:01 -8.35454 114.35638 13686 ft 335 kts 126°
2026-05-04 16:01 -8.36826 114.37535 13243 ft 333 kts 126°
2026-05-04 16:01 -8.38185 114.39414 12826 ft 330 kts 126°
2026-05-04 16:02 -8.39532 114.41277 12454 ft 326 kts 126°
2026-05-04 16:02 -8.40860 114.43115 12079 ft 323 kts 126°
2026-05-04 16:02 -8.43488 114.46751 11325 ft 318 kts 125°
2026-05-04 16:03 -8.44790 114.48552 10947 ft 316 kts 125°
2026-05-04 16:03 -8.46078 114.50336 10571 ft 314 kts 125°
2026-05-04 16:03 -8.47349 114.52095 10399 ft 305 kts 125°
2026-05-04 16:03 -8.48569 114.53783 10249 ft 299 kts 125°
2026-05-04 16:04 -8.49804 114.55493 10140 ft 310 kts 125°
2026-05-04 16:04 -8.52458 114.59173 9547 ft 327 kts 125°
2026-05-04 16:04 -8.53800 114.61033 9177 ft 326 kts 125°
2026-05-04 16:05 -8.55127 114.62869 8816 ft 321 kts 125°
2026-05-04 16:05 -8.56433 114.64679 8462 ft 316 kts 125°
2026-05-04 16:05 -8.58991 114.68223 7784 ft 309 kts 125°
2026-05-04 16:06 -8.60252 114.69971 7452 ft 307 kts 125°
2026-05-04 16:06 -8.63578 114.74583 6576 ft 303 kts 124°
2026-05-04 16:07 -8.65220 114.76861 6109 ft 303 kts 125°
2026-05-04 16:07 -8.68899 114.81965 5113 ft 296 kts 124°
2026-05-04 16:08 -8.70106 114.83642 4793 ft 294 kts 125°
2026-05-04 16:08 -8.73677 114.88597 3918 ft 284 kts 125°
2026-05-04 16:09 -8.75449 114.92013 3670 ft 270 kts 98°
2026-05-04 16:09 -8.75566 114.95551 3436 ft 235 kts 92°
2026-05-04 16:10 -8.75541 114.98692 3059 ft 214 kts 89°
2026-05-04 16:11 -8.75375 115.03071 2356 ft 201 kts 89°
2026-05-04 16:11 -8.75321 115.04461 2103 ft 195 kts 89°
2026-05-04 16:12 -8.75170 115.08295 1388 ft 165 kts 89°
2026-05-04 16:12 -8.75050 115.11383 848 ft 141 kts 89°
2026-05-04 16:13 -8.74970 115.13385 502 ft 143 kts 90°
2026-05-04 16:13 -8.74898 115.15368 70 ft 137 kts 90°
2026-05-04 16:14 -8.74835 115.16931 27 ft 72 kts 88°
2026-05-04 16:14 -8.74810 115.17531 28 ft 32 kts 88°
2026-05-04 16:15 -8.74639 115.17743 32 ft 14 kts 283°
2026-05-04 16:16 -8.74644 115.17552 31 ft 13 kts 268°
2026-05-04 16:16 -8.74655 115.17289 31 ft 12 kts 267°
2026-05-04 16:17 -8.74662 115.17122 31 ft 13 kts 268°
2026-05-04 16:18 -8.74678 115.16765 31 ft 20 kts 267°
2026-05-04 16:18 -8.74683 115.16630 30 ft 19 kts 268°
2026-05-04 16:19 -8.74699 115.16256 32 ft 9 kts 268°
2026-05-04 16:19 -8.74609 115.16210 32 ft 8 kts 358°
2026-05-04 16:20 -8.74571 115.16208 32 ft 0 kts 358°